EW0516 Weather Reports


Display with metric or nautical units.
time (UTC)temp
F
wind
direction
speed
MPH
gust
MPH
rain 1hr
in
rain 24hr
in
rain mn
in
humidity
%
barometer
mb
20210726001507 77 162 0.0 0.0 0.00 0.00 0.00 56 1010.2
20210726000014 78 164 0.0 0.0 0.00 0.00 0.00 56 1010.2
20210725234507 78 153 0.0 1.0 0.00 0.00 0.00 55 1010.3
20210725233138 78 149 0.0 4.0 0.00 0.00 0.00 55 1010.4
20210725231653 80 190 0.0 0.0 0.00 0.00 0.00 53 1010.4
20210725230245 79 163 0.0 1.0 0.00 0.00 0.00 54 1010.5
20210725224654 79 168 0.0 5.0 0.00 0.00 0.00 54 1010.6
20210725223205 79 152 0.0 6.0 0.00 0.00 0.00 55 1010.7
20210725221658 79 152 0.0 1.0 0.00 0.00 0.00 54 1010.8
20210725220212 79 114 0.0 4.0 0.00 0.00 0.00 55 1010.9
20210725220035 79 113 0.0 4.0 0.00 0.00 0.00 55 1010.9
20210725214602 80 116 0.0 10.0 0.00 0.00 0.00 54 1011.2
20210725213135 81 134 0.0 7.0 0.00 0.00 0.00 53 1011.3
20210725211650 81 102 0.0 7.0 0.00 0.00 0.00 53 1011.4
20210725210154 81 69 0.0 4.0 0.00 0.00 0.00 53 1011.6
20210725204600 81 74 0.0 0.0 0.00 0.00 0.00 51 1011.8
20210725203313 80 157 0.0 4.0 0.00 0.00 0.00 51 1011.9
20210725201618 79 74 0.0 1.0 0.00 0.00 0.00 52 1012.1
20210725200126 78 107 0.0 4.0 0.00 0.00 0.00 53 1012.3
20210725194535 77 65 0.0 5.0 0.00 0.00 0.00 54 1012.4
20210725193100 77 85 0.0 3.0 0.00 0.00 0.00 54 1012.4
20210725191642 76 144 0.0 4.0 0.00 0.00 0.00 57 1012.5
20210725190029 75 182 0.0 7.0 0.00 0.00 0.00 58 1012.7
20210725184541 73 161 0.0 0.0 0.00 0.00 0.00 61 1012.7
20210725183107 72 107 0.0 0.0 0.00 0.00 0.00 63 1012.7
20210725181541 71 86 0.0 0.0 0.00 0.00 0.00 65 1012.7
20210725180010 70 134 0.0 0.0 0.00 0.00 0.00 67 1012.8
20210725174513 70 117 0.0 0.0 0.00 0.00 0.00 68 1012.9
20210725173136 68 98 0.0 0.0 0.00 0.00 0.00 71 1012.8
20210725171815 67 80 0.0 5.0 0.00 0.00 0.00 73 1012.8
20210725170128 66 159 0.0 0.0 0.00 0.00 0.00 75 1012.9
20210725164555 65 162 0.0 0.0 0.00 0.00 0.00 77 1012.9
20210725161619 63 168 0.0 2.0 0.00 0.00 0.00 84 1013.1
20210725160105 61 168 0.0 0.0 0.00 0.00 0.00 90 1013.0
20210725154554 60 168 0.0 0.0 0.00 0.00 0.00 93 1013.0
20210725153029 58 168 0.0 0.0 0.00 0.00 0.00 95 1013.0
20210725151547 58 168 0.0 0.0 0.00 0.00 0.00 96 1012.9
20210725150038 56 168 0.0 0.0 0.00 0.00 0.00 96 1012.8
20210725144527 55 168 0.0 0.0 0.00 0.00 0.00 95 1012.8
20210725143030 55 168 0.0 0.0 0.00 0.00 0.00 95 1012.7
20210725141545 55 168 0.0 0.0 0.00 0.00 0.00 95 1012.7
20210725140020 54 168 0.0 0.0 0.00 0.00 0.00 95 1012.6
20210725134539 54 168 0.0 0.0 0.00 0.00 0.00 95 1012.6
20210725133013 54 168 0.0 0.0 0.00 0.00 0.00 94 1012.6
20210725131510 54 168 0.0 0.0 0.00 0.00 0.00 95 1012.4
20210725130003 54 168 0.0 0.0 0.00 0.00 0.00 94 1012.3
20210725124502 54 168 0.0 0.0 0.00 0.00 0.00 94 1012.2
20210725123244 54 168 0.0 0.0 0.00 0.00 0.00 94 1012.2
20210725123003 54 168 0.0 0.0 0.00 0.00 0.00 94 1012.2
20210725121723 55 168 0.0 0.0 0.00 0.00 0.00 94 1012.1
20210725120135 55 168 0.0 0.0 0.00 0.00 0.00 94 1012.1
20210725114619 55 168 0.0 0.0 0.00 0.00 0.00 93 1012.1
20210725113302 55 168 0.0 0.0 0.00 0.00 0.00 93 1012.1
20210725111633 55 168 0.0 0.0 0.00 0.00 0.00 93 1012.0
20210725110225 55 168 0.0 0.0 0.00 0.00 0.00 93 1012.1
20210725104637 56 168 0.0 0.0 0.00 0.00 0.00 92 1012.0
20210725103134 56 168 0.0 0.0 0.00 0.00 0.00 91 1012.2
20210725101822 56 168 0.0 0.0 0.00 0.00 0.00 92 1012.0
20210725100102 56 168 0.0 0.0 0.00 0.00 0.00 91 1012.1
20210725094553 57 168 0.0 0.0 0.00 0.00 0.00 90 1012.0
20210725093121 57 168 0.0 0.0 0.00 0.00 0.00 89 1012.1
20210725091615 58 168 0.0 0.0 0.00 0.00 0.00 90 1011.9
20210725090153 58 168 0.0 0.0 0.00 0.00 0.00 89 1011.8
20210725084627 58 168 0.0 0.0 0.00 0.00 0.00 88 1011.9
20210725083123 58 168 0.0 0.0 0.00 0.00 0.00 88 1012.0
20210725081553 58 168 0.0 0.0 0.00 0.00 0.00 85 1011.9
20210725080056 59 168 0.0 0.0 0.00 0.00 0.00 85 1012.2
20210725074600 59 168 0.0 0.0 0.00 0.00 0.00 82 1012.1
20210725073108 60 168 0.0 0.0 0.00 0.00 0.00 82 1012.1
20210725071645 60 168 0.0 0.0 0.00 0.00 0.00 83 1012.2
20210725070025 60 168 0.0 0.0 0.00 0.00 0.00 82 1012.3
20210725064526 60 168 0.0 0.0 0.00 0.00 0.00 81 1012.2
20210725063210 61 168 0.0 0.0 0.00 0.00 0.00 80 1012.2
20210725061524 62 168 0.0 0.0 0.00 0.00 0.00 80 1012.3
20210725060113 62 168 0.0 0.0 0.00 0.00 0.00 80 1012.4
20210725054522 62 168 0.0 0.0 0.00 0.00 0.00 80 1012.4
20210725053117 63 168 0.0 0.0 0.00 0.00 0.00 79 1012.5
20210725051520 64 168 0.0 0.0 0.00 0.00 0.00 76 1012.4
20210725050021 65 168 0.0 0.0 0.00 0.00 0.00 74 1012.3
20210725044542 67 168 0.0 0.0 0.00 0.00 0.00 71 1012.1
20210725043022 67 168 0.0 0.0 0.00 0.00 0.00 71 1012.0
20210725041520 68 168 0.0 0.0 0.00 0.00 0.00 70 1012.0
20210725040020 68 168 0.0 0.0 0.00 0.00 0.00 71 1011.8
20210725034518 69 168 0.0 0.0 0.00 0.00 0.00 68 1011.6
20210725033018 69 168 0.0 0.0 0.00 0.00 0.00 67 1011.5
20210725031539 70 168 0.0 0.0 0.00 0.00 0.00 65 1011.4
20210725030014 71 168 0.0 0.0 0.00 0.00 0.00 64 1011.4
20210725024521 73 168 0.0 0.0 0.00 0.00 0.00 60 1011.2
20210725023033 76 168 0.0 0.0 0.00 0.00 0.00 57 1011.1
20210725021540 77 168 0.0 0.0 0.00 0.00 0.00 54 1011.0
20210725020018 78 168 0.0 0.0 0.00 0.00 0.00 54 1011.1
20210725014511 79 168 0.0 0.0 0.00 0.00 0.00 52 1011.1
20210725013009 80 180 0.0 0.0 0.00 0.00 0.00 52 1011.2
20210725011510 80 178 0.0 0.0 0.00 0.00 0.00 50 1011.4
20210725010003 80 174 0.0 0.0 0.00 0.00 0.00 52 1011.5
20210725003253 80 160 0.0 3.0 0.00 0.00 0.00 52 1011.8